EW6800 Weather Reports


Display with metric or nautical units.
time (UTC)temp
F
wind
direction
speed
MPH
gust
MPH
rain 1hr
in
rain 24hr
in
rain mn
in
humidity
%
barometer
mb
20260901072045 52 317 1.0 6.0 0.00 0.00 0.00 87 1014.9
20260901071557 52 323 2.0 6.0 0.00 0.00 0.00 87 1014.9
20260901071042 52 311 1.0 6.0 0.00 0.00 0.00 88 1014.8
20260901070544 52 312 3.0 6.0 0.00 0.00 0.00 87 1014.7
20260901070103 52 0 0.0 2.0 0.00 0.00 0.00 88 1014.8
20260901065545 52 0 0.0 5.0 0.00 0.00 0.00 88 1014.7
20260901065043 52 0 2.0 5.0 0.00 0.00 0.00 88 1014.7
20260901064602 52 310 2.0 5.0 0.00 0.00 0.00 88 1014.8
20260901064049 52 309 2.0 5.0 0.00 0.00 0.00 88 1014.8
20260901063542 52 309 1.0 5.0 0.00 0.00 0.00 88 1014.9
20260901063058 52 294 2.0 5.0 0.00 0.00 0.00 88 1014.9
20260901062546 52 323 0.0 4.0 0.00 0.00 0.00 89 1014.9
20260901062043 52 312 1.0 6.0 0.00 0.00 0.00 89 1014.9
20260901061605 52 312 1.0 6.0 0.00 0.00 0.00 88 1014.8
20260901061044 52 309 1.0 7.0 0.00 0.00 0.00 89 1014.8
20260901060543 52 319 1.0 7.0 0.00 0.00 0.00 89 1014.9
20260901060055 52 327 2.0 6.0 0.00 0.00 0.00 89 1015.0
20260901055543 52 298 3.0 7.0 0.00 0.00 0.00 89 1015.0
20260901055044 52 317 3.0 7.0 0.00 0.00 0.00 89 1015.1
20260901054554 52 321 3.0 7.0 0.00 0.00 0.00 89 1015.0
20260901054045 52 321 4.0 7.0 0.00 0.00 0.00 89 1015.1
20260901053546 52 304 2.0 8.0 0.00 0.00 0.00 89 1015.1
20260901053107 52 321 4.0 8.0 0.00 0.00 0.00 89 1015.1
20260901052543 52 304 4.0 8.0 0.00 0.00 0.00 89 1015.1
20260901052045 52 309 3.0 7.0 0.00 0.00 0.00 89 1015.1
20260901051607 52 308 3.0 7.0 0.00 0.00 0.00 89 1015.1
20260901051047 52 326 3.0 7.0 0.00 0.00 0.00 89 1015.0
20260901050545 52 313 2.0 6.0 0.00 0.00 0.00 89 1015.0
20260901050054 52 299 2.0 5.0 0.00 0.00 0.00 89 1014.9
20260901045544 52 314 2.0 5.0 0.00 0.00 0.00 89 1014.8
20260901045043 52 319 3.0 7.0 0.00 0.00 0.00 89 1014.8
20260901044618 52 308 3.0 7.0 0.00 0.00 0.00 89 1014.7
20260901044045 52 317 3.0 5.0 0.00 0.00 0.00 89 1014.7
20260901043544 52 315 2.0 6.0 0.00 0.00 0.00 89 1014.7
20260901043059 52 315 3.0 7.0 0.00 0.00 0.00 89 1014.7
20260901042543 52 320 3.0 7.0 0.00 0.00 0.00 89 1014.6
20260901042043 52 307 2.0 9.0 0.00 0.00 0.00 89 1014.7
20260901041559 52 323 4.0 9.0 0.00 0.00 0.00 88 1014.6
20260901041047 52 309 4.0 9.0 0.00 0.00 0.00 89 1014.5
20260901040543 52 303 4.0 8.0 0.00 0.00 0.00 89 1014.5
20260901040055 52 319 4.0 8.0 0.00 0.00 0.00 90 1014.5
20260901035546 52 319 3.0 9.0 0.00 0.00 0.00 90 1014.5
20260901035048 52 313 3.0 9.0 0.00 0.00 0.00 90 1014.5
20260901034559 52 321 3.0 7.0 0.00 0.00 0.00 90 1014.5
20260901034043 52 312 3.0 5.0 0.00 0.00 0.00 90 1014.5
20260901033544 52 319 1.0 5.0 0.00 0.00 0.00 90 1014.5
20260901033053 52 311 3.0 6.0 0.00 0.00 0.00 90 1014.4
20260901032544 52 318 3.0 6.0 0.00 0.00 0.00 90 1014.3
20260901032045 53 306 2.0 8.0 0.00 0.00 0.00 89 1014.3
20260901031553 53 313 3.0 8.0 0.00 0.00 0.00 89 1014.3
20260901031044 53 309 3.0 7.0 0.00 0.00 0.00 89 1014.3
20260901030549 53 324 4.0 8.0 0.00 0.00 0.00 89 1014.3
20260901030053 53 331 4.0 8.0 0.00 0.00 0.00 89 1014.2
20260901025545 53 313 4.0 8.0 0.00 0.00 0.00 89 1014.1
20260901025047 53 314 4.0 7.0 0.00 0.00 0.00 89 1014.0
20260901024608 53 315 3.0 7.0 0.00 0.00 0.00 89 1014.1
20260901024045 53 308 3.0 8.0 0.00 0.00 0.00 89 1014.0
20260901023543 53 299 3.0 8.0 0.00 0.00 0.00 89 1014.0
20260901023101 53 300 4.0 8.0 0.00 0.00 0.00 88 1014.0
20260901022544 53 302 4.0 8.0 0.00 0.00 0.00 88 1014.0
20260901022044 54 319 4.0 7.0 0.00 0.00 0.00 88 1014.0
20260901021557 54 306 3.0 7.0 0.00 0.00 0.00 88 1014.1
20260901021129 54 282 3.0 7.0 0.00 0.00 0.00 87 1014.0
20260901020540 54 304 3.0 9.0 0.00 0.00 0.00 87 1014.0
20260901020051 54 311 4.0 9.0 0.00 0.00 0.00 87 1013.9
20260901015542 54 317 5.0 10.0 0.00 0.00 0.00 87 1013.8
20260901015043 54 301 4.0 10.0 0.00 0.00 0.00 86 1014.0
20260901014552 54 306 7.0 10.0 0.00 0.00 0.00 86 1013.9
20260901014043 54 306 7.0 10.0 0.00 0.00 0.00 86 1013.8
20260901013544 54 294 4.0 8.0 0.00 0.00 0.00 86 1013.8
20260901013057 54 306 4.0 8.0 0.00 0.00 0.00 86 1013.8
20260901012544 54 293 4.0 9.0 0.00 0.00 0.00 86 1013.9
20260901012045 55 298 4.0 9.0 0.00 0.00 0.00 85 1013.9
20260901011603 55 308 5.0 10.0 0.00 0.00 0.00 85 1013.9
20260901011044 55 300 4.0 10.0 0.00 0.00 0.00 85 1013.9
20260901010543 55 316 6.0 10.0 0.00 0.00 0.00 84 1014.0
20260901010056 56 303 6.0 10.0 0.00 0.00 0.00 84 1014.0
20260901005544 56 304 6.0 10.0 0.00 0.00 0.00 83 1014.0
20260901005043 57 303 5.0 11.0 0.00 0.00 0.00 82 1014.0
20260901004605 57 298 5.0 11.0 0.00 0.00 0.00 81 1014.0
20260901004042 57 313 7.0 11.0 0.00 0.00 0.00 80 1014.0
20260901003542 58 317 6.0 12.0 0.00 0.00 0.00 80 1014.0
20260901003105 58 297 4.0 12.0 0.00 0.00 0.00 80 1013.9
20260901002543 58 312 7.0 12.0 0.00 0.00 0.00 79 1014.0
20260901002048 58 306 6.0 10.0 0.00 0.00 0.00 78 1013.8
20260901001553 59 298 6.0 11.0 0.00 0.00 0.00 78 1013.8
20260901001045 59 290 6.0 11.0 0.00 0.00 0.00 77 1013.7
20260901000543 59 309 7.0 11.0 0.00 0.00 0.00 77 1013.8
20260901000055 59 311 5.0 10.0 0.00 0.00 0.00 77 1013.9
20260831235540 59 297 5.0 10.0 0.00 0.00 0.00 77 1013.9
20260831235040 60 305 5.0 10.0 0.00 0.00 0.00 77 1014.0
20260831234558 60 286 6.0 11.0 0.00 0.00 0.00 76 1014.0
20260831234040 60 296 5.0 11.0 0.00 0.00 0.00 75 1013.9
20260831233540 61 300 5.0 11.0 0.00 0.00 0.00 75 1013.9
20260831233100 61 309 6.0 10.0 0.00 0.00 0.00 74 1013.9
20260831232542 61 293 5.0 10.0 0.00 0.00 0.00 74 1014.0
20260831232042 61 302 5.0 10.0 0.00 0.00 0.00 74 1014.0
20260831231559 62 301 4.0 10.0 0.00 0.00 0.00 74 1014.1
20260831231043 61 319 5.0 10.0 0.00 0.00 0.00 74 1014.1
20260831230545 62 292 5.0 10.0 0.00 0.00 0.00 73 1014.1
20260831230106 62 298 6.0 11.0 0.00 0.00 0.00 74 1014.1
20260831225543 62 281 5.0 11.0 0.00 0.00 0.00 74 1014.1
20260831225046 62 296 4.0 10.0 0.00 0.00 0.00 74 1014.2
20260831224603 62 304 5.0 10.0 0.00 0.00 0.00 73 1014.2
20260831224043 62 305 4.0 9.0 0.00 0.00 0.00 74 1014.2
20260831223543 62 314 5.0 9.0 0.00 0.00 0.00 75 1014.1
20260831223103 62 303 4.0 8.0 0.00 0.00 0.00 76 1014.2
20260831222543 62 285 4.0 9.0 0.00 0.00 0.00 76 1014.1
20260831222044 62 302 3.0 9.0 0.00 0.00 0.00 76 1014.3
20260831221557 62 322 4.0 9.0 0.00 0.00 0.00 77 1014.4
20260831221040 61 310 4.0 9.0 0.00 0.00 0.00 77 1014.5
20260831220543 61 287 4.0 9.0 0.00 0.00 0.00 77 1014.5
20260831220052 62 302 5.0 9.0 0.00 0.00 0.00 78 1014.6
20260831215543 61 319 3.0 10.0 0.00 0.00 0.00 78 1014.7
20260831215039 61 292 3.0 10.0 0.00 0.00 0.00 80 1014.7
20260831214622 61 297 4.0 8.0 0.00 0.00 0.00 79 1014.8
20260831214042 61 305 4.0 8.0 0.00 0.00 0.00 79 1014.8
20260831213543 60 311 3.0 7.0 0.00 0.00 0.00 81 1014.9
20260831213059 60 300 3.0 8.0 0.00 0.00 0.00 81 1014.8
20260831212544 60 304 3.0 9.0 0.00 0.00 0.00 82 1014.9
20260831212046 60 300 3.0 9.0 0.00 0.00 0.00 81 1015.0
20260831211554 60 303 4.0 8.0 0.00 0.00 0.00 82 1015.0
20260831211043 59 295 3.0 6.0 0.00 0.00 0.00 83 1015.0
20260831210546 59 318 3.0 7.0 0.00 0.00 0.00 83 1015.1
20260831210100 59 311 3.0 8.0 0.00 0.00 0.00 84 1015.1
20260831205543 58 313 4.0 8.0 0.00 0.00 0.00 84 1015.1
20260831205045 58 317 3.0 8.0 0.00 0.00 0.00 85 1015.1
20260831204602 58 311 3.0 8.0 0.00 0.00 0.00 85 1015.1
20260831204044 58 306 3.0 8.0 0.00 0.00 0.00 87 1015.1
20260831203546 57 299 3.0 7.0 0.00 0.00 0.00 86 1015.1
20260831203055 57 313 3.0 7.0 0.00 0.00 0.00 87 1015.1
20260831202544 57 300 2.0 7.0 0.00 0.00 0.00 89 1015.1
20260831202044 57 298 3.0 9.0 0.00 0.00 0.00 89 1015.2
20260831201557 56 297 4.0 9.0 0.00 0.00 0.00 89 1015.1
20260831201045 56 309 4.0 9.0 0.00 0.00 0.00 91 1015.1
20260831200544 56 304 4.0 7.0 0.00 0.00 0.00 92 1015.2
20260831200053 56 338 4.0 7.0 0.00 0.00 0.00 93 1015.1
20260831195544 56 309 2.0 7.0 0.00 0.00 0.00 94 1015.1
20260831195044 55 300 2.0 7.0 0.00 0.00 0.00 95 1015.1
20260831194600 55 308 3.0 7.0 0.00 0.00 0.00 95 1015.2
20260831194044 55 302 2.0 9.0 0.00 0.00 0.00 95 1015.4
20260831193546 55 286 2.0 9.0 0.00 0.00 0.00 96 1015.4
20260831193058 54 311 2.0 5.0 0.00 0.00 0.00 96 1015.5
20260831192543 54 305 2.0 5.0 0.00 0.00 0.00 96 1015.5
20260831192043 54 294 2.0 7.0 0.00 0.00 0.00 96 1015.7
20260831191603 54 317 2.0 7.0 0.00 0.00 0.00 96 1015.7
20260831191045 54 297 3.0 7.0 0.00 0.00 0.00 96 1015.7
20260831190543 53 301 3.0 8.0 0.00 0.00 0.00 96 1015.7
20260831190113 53 301 3.0 8.0 0.00 0.00 0.00 96 1015.6
20260831185545 53 296 3.0 8.0 0.00 0.00 0.00 96 1015.5
20260831185045 53 288 3.0 8.0 0.00 0.00 0.00 96 1015.4
20260831184604 53 313 2.0 7.0 0.00 0.00 0.00 96 1015.4
20260831184043 53 304 3.0 7.0 0.00 0.00 0.00 96 1015.5
20260831183544 53 306 4.0 7.0 0.00 0.00 0.00 96 1015.6
20260831183101 53 307 4.0 7.0 0.00 0.00 0.00 96 1015.6
20260831182543 53 315 2.0 5.0 0.00 0.00 0.00 96 1015.7
20260831182044 53 300 0.0 2.0 0.00 0.00 0.00 96 1015.8
20260831181554 52 314 0.0 4.0 0.00 0.00 0.00 96 1015.8
20260831181044 52 314 1.0 4.0 0.00 0.00 0.00 96 1015.7
20260831180544 52 314 3.0 4.0 0.00 0.00 0.00 96 1015.7
20260831180057 52 315 0.0 5.0 0.00 0.00 0.00 96 1015.6
20260831175543 52 315 1.0 5.0 0.00 0.00 0.00 96 1015.6
20260831175044 52 314 0.0 3.0 0.00 0.00 0.00 96 1015.7
20260831174609 52 0 1.0 5.0 0.00 0.00 0.00 96 1015.6
20260831174044 51 314 0.0 5.0 0.00 0.00 0.00 96 1015.6
20260831173549 51 314 2.0 5.0 0.00 0.00 0.00 96 1015.6
20260831173057 51 0 1.0 4.0 0.00 0.00 0.00 96 1015.6
20260831172543 51 306 2.0 5.0 0.00 0.00 0.00 96 1015.7
20260831172043 51 316 0.0 5.0 0.00 0.00 0.00 96 1015.6
20260831171606 51 317 1.0 5.0 0.00 0.00 0.00 96 1015.6
20260831171044 51 314 1.0 4.0 0.00 0.00 0.00 96 1015.5
20260831170543 51 314 2.0 4.0 0.00 0.00 0.00 96 1015.4
20260831165543 51 0 1.0 7.0 0.00 0.00 0.00 96 1015.3
20260831165043 51 315 1.0 7.0 0.00 0.00 0.00 96 1015.3
20260831164607 51 322 2.0 5.0 0.00 0.00 0.00 96 1015.1
20260831164043 51 316 3.0 5.0 0.00 0.00 0.00 96 1015.1
20260831163545 51 313 1.0 4.0 0.00 0.00 0.00 96 1015.1
20260831163056 51 336 2.0 4.0 0.00 0.00 0.00 96 1015.1
20260831162543 51 306 1.0 3.0 0.00 0.00 0.00 96 1015.1
20260831162043 50 307 0.0 4.0 0.00 0.00 0.00 96 1014.9
20260831161554 50 307 1.0 5.0 0.00 0.00 0.00 96 1014.9
20260831161045 50 0 1.0 6.0 0.00 0.00 0.00 96 1014.8
20260831160544 50 305 3.0 7.0 0.00 0.00 0.00 96 1014.6
20260831160051 50 310 4.0 7.0 0.00 0.00 0.00 96 1014.6
20260831155547 50 326 2.0 4.0 0.00 0.00 0.00 96 1014.6
20260831155046 50 312 1.0 8.0 0.00 0.00 0.00 96 1014.7
20260831154620 50 313 3.0 8.0 0.00 0.00 0.00 96 1014.6
20260831154043 50 317 1.0 4.0 0.00 0.00 0.00 96 1014.5
20260831153543 50 312 2.0 4.0 0.00 0.00 0.00 96 1014.5
20260831153059 50 306 2.0 4.0 0.00 0.00 0.00 96 1014.4
20260831152546 50 315 2.0 4.0 0.00 0.00 0.00 96 1014.4
20260831152043 50 315 2.0 5.0 0.00 0.00 0.00 96 1014.4
20260831151553 50 315 2.0 7.0 0.00 0.00 0.00 96 1014.4
20260831151043 50 320 2.0 8.0 0.00 0.00 0.00 95 1014.4
20260831150543 50 324 4.0 8.0 0.00 0.00 0.00 96 1014.4
20260831150049 50 321 3.0 7.0 0.00 0.00 0.00 96 1014.3
20260831145543 50 311 3.0 6.0 0.00 0.00 0.00 96 1014.3
20260831145043 50 309 2.0 7.0 0.00 0.00 0.00 96 1014.0
20260831144551 50 321 3.0 7.0 0.00 0.00 0.00 96 1014.0
20260831144044 50 326 2.0 9.0 0.00 0.00 0.00 96 1014.0
20260831143543 50 318 4.0 9.0 0.00 0.00 0.00 95 1014.0
20260831143102 50 315 3.0 9.0 0.00 0.00 0.00 95 1014.0
20260831142546 50 319 3.0 7.0 0.00 0.00 0.00 96 1013.8
20260831142043 50 302 3.0 7.0 0.00 0.00 0.00 95 1013.7
20260831141557 50 312 2.0 8.0 0.00 0.00 0.00 95 1013.7
20260831141043 50 312 3.0 8.0 0.00 0.00 0.00 95 1013.7
20260831140543 50 300 3.0 8.0 0.00 0.00 0.00 95 1013.6
20260831140054 50 315 3.0 8.0 0.00 0.00 0.00 95 1013.7
20260831135544 50 316 3.0 8.0 0.00 0.00 0.00 95 1013.6
20260831135044 50 317 3.0 8.0 0.00 0.00 0.00 95 1013.5
20260831134604 50 309 4.0 8.0 0.00 0.00 0.00 95 1013.6
20260831134043 50 322 3.0 8.0 0.00 0.00 0.00 95 1013.5
20260831133543 50 314 4.0 9.0 0.00 0.00 0.00 95 1013.4
20260831133059 50 321 4.0 9.0 0.00 0.00 0.00 95 1013.4
20260831132543 50 321 4.0 10.0 0.00 0.00 0.00 95 1013.4
20260831132047 50 308 5.0 10.0 0.00 0.00 0.00 95 1013.3
20260831131600 49 302 5.0 9.0 0.00 0.00 0.00 95 1013.4
20260831131044 49 330 5.0 8.0 0.00 0.00 0.00 95 1013.4
20260831130544 49 313 4.0 8.0 0.00 0.00 0.00 95 1013.4
20260831130058 49 296 3.0 8.0 0.00 0.00 0.00 95 1013.4
20260831125544 49 308 4.0 8.0 0.00 0.00 0.00 95 1013.5
20260831125043 49 314 3.0 8.0 0.00 0.00 0.00 95 1013.6
20260831124603 49 315 3.0 8.0 0.00 0.00 0.00 95 1013.6
20260831124044 49 307 4.0 8.0 0.00 0.00 0.00 95 1013.5
20260831123544 49 308 3.0 8.0 0.00 0.00 0.00 95 1013.5
20260831123100 49 315 4.0 8.0 0.00 0.00 0.00 95 1013.5
20260831122543 49 310 4.0 8.0 0.00 0.00 0.00 95 1013.5
20260831122044 49 304 3.0 8.0 0.00 0.00 0.00 95 1013.4
20260831121558 49 317 3.0 7.0 0.00 0.00 0.00 95 1013.3
20260831121043 49 314 3.0 7.0 0.00 0.00 0.00 95 1013.3
20260831120542 49 316 4.0 8.0 0.00 0.00 0.00 95 1013.3
20260831120056 49 309 4.0 8.0 0.00 0.00 0.00 95 1013.2
20260831115543 49 305 3.0 7.0 0.00 0.00 0.00 95 1013.3
20260831115043 48 306 4.0 9.0 0.00 0.00 0.00 95 1013.4
20260831114600 49 309 5.0 9.0 0.00 0.00 0.00 95 1013.3
20260831114047 49 299 3.0 7.0 0.00 0.00 0.00 95 1013.3
20260831113544 49 313 2.0 5.0 0.00 0.00 0.00 95 1013.4
20260831113114 49 308 3.0 5.0 0.00 0.00 0.00 95 1013.3
20260831112546 49 311 2.0 4.0 0.00 0.00 0.00 95 1013.4
20260831112044 49 313 2.0 4.0 0.00 0.00 0.00 95 1013.4
20260831111551 49 312 2.0 6.0 0.00 0.00 0.00 95 1013.4
20260831111043 49 317 2.0 6.0 0.00 0.00 0.00 95 1013.5
20260831110547 49 322 2.0 6.0 0.00 0.00 0.00 95 1013.4
20260831110100 49 311 3.0 6.0 0.00 0.00 0.00 95 1013.4
20260831105544 48 304 2.0 5.0 0.00 0.00 0.00 95 1013.3
20260831105044 48 304 2.0 5.0 0.00 0.00 0.00 94 1013.3
20260831104601 48 316 3.0 5.0 0.00 0.00 0.00 94 1013.3
20260831104043 48 311 3.0 5.0 0.00 0.00 0.00 94 1013.3
20260831103546 48 306 3.0 5.0 0.00 0.00 0.00 94 1013.3
20260831103058 48 310 2.0 4.0 0.00 0.00 0.00 94 1013.2
20260831102546 48 312 2.0 4.0 0.00 0.00 0.00 94 1013.2
20260831102044 48 302 1.0 3.0 0.00 0.00 0.00 94 1013.2
20260831101555 48 294 0.0 1.0 0.00 0.00 0.00 94 1013.2
20260831101045 48 0 0.0 2.0 0.00 0.00 0.00 94 1013.1
20260831100549 48 294 0.0 3.0 0.00 0.00 0.00 94 1013.1
20260831100216 48 294 0.0 3.0 0.00 0.00 0.00 94 1013.1
20260831095543 48 294 1.0 3.0 0.00 0.00 0.00 94 1013.2
20260831095044 48 294 1.0 2.0 0.00 0.00 0.00 94 1013.2
20260831094614 48 254 1.0 2.0 0.00 0.00 0.00 94 1013.1
20260831094044 48 0 0.0 0.0 0.00 0.00 0.00 94 1013.0
20260831093544 48 0 0.0 1.0 0.00 0.00 0.00 94 1013.0
20260831093057 48 0 0.0 3.0 0.00 0.00 0.00 93 1013.1
20260831092545 48 0 0.0 3.0 0.00 0.00 0.00 93 1013.1
20260831092045 48 244 1.0 3.0 0.00 0.00 0.00 93 1013.2
20260831091552 48 154 1.0 2.0 0.00 0.00 0.00 93 1013.2
20260831091048 48 145 1.0 3.0 0.00 0.00 0.00 93 1013.2
20260831090546 49 144 1.0 3.0 0.00 0.00 0.00 92 1013.2
20260831090107 49 0 0.0 0.0 0.00 0.00 0.00 93 1013.2
20260831085544 49 0 0.0 0.0 0.00 0.00 0.00 93 1013.2
20260831085044 49 0 0.0 0.0 0.00 0.00 0.00 92 1013.3
20260831084602 49 0 0.0 0.0 0.00 0.00 0.00 92 1013.4
20260831084043 49 0 0.0 1.0 0.00 0.00 0.00 92 1013.4
20260831083543 49 0 0.0 2.0 0.00 0.00 0.00 91 1013.4
20260831083109 50 0 0.0 2.0 0.00 0.00 0.00 91 1013.4
20260831082544 50 144 0.0 1.0 0.00 0.00 0.00 90 1013.3
20260831082044 50 0 0.0 0.0 0.00 0.00 0.00 90 1013.3
20260831081609 51 0 0.0 0.0 0.00 0.00 0.00 90 1013.4
20260831081044 51 0 0.0 0.0 0.00 0.00 0.00 90 1013.4
20260831080544 52 0 0.0 0.0 0.00 0.00 0.00 89 1013.4
20260831080100 52 0 0.0 0.0 0.00 0.00 0.00 90 1013.4
20260831075543 52 0 0.0 0.0 0.00 0.00 0.00 89 1013.4
20260831075043 52 0 0.0 0.0 0.00 0.00 0.00 89 1013.5
20260831074557 52 0 0.0 0.0 0.00 0.00 0.00 89 1013.5
20260831074045 52 0 0.0 0.0 0.00 0.00 0.00 88 1013.5
20260831073543 52 0 0.0 1.0 0.00 0.00 0.00 87 1013.4
20260831073105 53 0 0.0 1.0 0.00 0.00 0.00 86 1013.4
20260831072543 54 0 0.0 1.0 0.00 0.00 0.00 86 1013.4